Погода в Приморском

Россия / Республика Крым     45°07′09″N   35°28′54″E
темп.,
°C
ветер,
м/с
пор.,
м/с
влажн.,
%
обл.,
%
осадки,
мм/ч
давл.,
гПа
погр.,
м
8 мая, сб
сб800:00+14ю6980100 0.0 1015234
03:00+14ю7984100 0.0 1013259
06:00+14ю7985100 0.0 1012265
09:00+14ю7108599 0.0 1012278
12:00+14ю7118477 0.0 1011315
15:00+14ю788611 0.0 1010256
18:00+16зюз3479100 0.0 1010106
21:00+15сз101481100 0.3 1012626
9 мая, вс
вс900:00+12ссз131688100 1.8 1013962
03:00+12ссз111378100 4.4 10151263
06:00+11ссз121372100 0.5 10181294
09:00+11ссз121369100 0.6 10201392
12:00+12ссз1112605 0.0 10221573
15:00+13ссз1011525 0.0 10231713
18:00+14ссз69495 0.0 10241168
21:00+13сз455687 0.0 1026188
10 мая, пн
пн1000:00+12сз585895 0.0 1027360
03:00+10сз786536 0.1 1027298
06:00+10сз79694 0.1 1027330
09:00+12с79541 0.2 10271691
12:00+13с88474 0.0 10271882
15:00+13с784660 0.0 10261549
18:00+14ссз574930 0.0 10251001
21:00+13з565775 0.0 1024291
11 мая, вт
вт1100:00+12зсз796093 0.0 1022354
03:00+12зсз9116598 0.0 1020412
06:00+11зсз9126795 0.0 1019588
09:00+11зсз91267100 0.0 1018969
12:00+12зсз81067100 0.0 1018877
15:00+12зсз7975100 0.4 1017718
18:00+12зсз7876100 0.3 1017670
21:00+11з4582100 1.4 1016379
12 мая, ср
ср1200:00+11ююз5585100 2.0 1015453
03:00+11юз4489100 3.4 1014355
06:00+11ююз2288100 0.5 1013327
09:00+12ююз238475 0.8 1013415
12:00+13ююз6784100 0.1 1014549
15:00+14ю998151 0.2 1014697
18:00+14ю887940 0.0 1014689
21:00+13ю77785 0.0 1014498